Location: San Vito
(41.8833°N, 12.9833°E)
Time: 05:25:17
(UTC+00:00)

Helios 1A Rocket - Pass Details

Date: 17 November 2019
Orbit: 563 x 588 km, 98.3° (Epoch: 12 December)

Event Time Altitude Azimuth Distance (km) Brightness Sun altitude
Rises 05:21:26 0° 3° (N) 2,806 6.3 -7.4°
Reaches altitude 10° 05:23:45 10° 354° (N) 1,898 5.3 -7.0°
Maximum altitude 05:27:25 33° 291° (WNW) 988 3.6 -6.4°
Drops below altitude 10° 05:31:03 10° 227° (SW) 1,871 5.3 -5.7°
Sets 05:33:19 0° 217° (SW) 2,760 6.2 -5.3°
